Find Starlink 5131

NORAD ID: 53996 Int'l Des: 2022-125 Owner: SPXS Country: US Constellation: starlink operational
LEOCIRCULAR

实时位置

正在加载3D地球...

关于 Starlink 5131

正在加载描述...

即将过境

Passes for default location (London). Set your location on the main map for personalized predictions.

高度历史

Loading altitude history...

两行轨道根数

1 53996U 22125AJ 26105.11404852 .00000790 00000-0 67772-4 0 9992
2 53996 53.2173 50.4430 0001567 87.7582 272.3589 15.08828410194969
Epoch: Apr 15, 2026 • Age: 8 hours

当前状态

高度 552.6 km
速度 7.58 km/s
星下点 -37.16°S, 14.04°E
发射日期 Oct 5, 2022
运行时间 3.5 years
类型 internet

技术详情

分类 Payload
质量 305.00 kg
干质量 290.00 kg
总质量 305.00 kg
长度 0.20 m
直径 2.80 m
跨度 9.00 m
形状 Box + pan
制造商 SPXS
平台类型 Starlink
阶段状态 In Orbit
所有者/国家 SPXS/US

Most Searched